EW7700 Weather Reports


Display with metric or nautical units.
time (UTC)temp
F
wind
direction
speed
MPH
gust
MPH
rain 1hr
in
rain 24hr
in
rain mn
in
humidity
%
barometer
mb
20260505213537 60 306 2.0 8.0 0.00 0.00 0.00 73 1015.1
20260505213037 61 304 3.0 8.0 0.00 0.00 0.00 73 1015.1
20260505212537 60 327 3.0 9.0 0.00 0.00 0.00 73 1015.1
20260505212037 60 326 2.0 6.0 0.00 0.00 0.00 75 1015.0
20260505211537 60 311 0.0 8.0 0.00 0.00 0.00 75 1015.1
20260505211035 60 311 1.0 8.0 0.00 0.00 0.00 73 1015.1
20260505210535 60 324 3.0 6.0 0.00 0.00 0.00 74 1015.1
20260505210035 60 325 3.0 6.0 0.00 0.00 0.00 73 1015.1
20260505205537 60 323 2.0 8.0 0.00 0.00 0.00 73 1015.1
20260505205036 61 324 0.0 5.0 0.00 0.00 0.00 73 1015.1
20260505204535 60 325 1.0 6.0 0.00 0.00 0.00 75 1015.1
20260505204033 60 325 2.0 6.0 0.00 0.00 0.00 74 1015.1
20260505203534 60 325 0.0 5.0 0.00 0.00 0.00 77 1015.1
20260505203033 60 325 1.0 6.0 0.00 0.00 0.00 75 1015.1
20260505202533 60 325 1.0 10.0 0.00 0.00 0.00 74 1015.1
20260505202032 60 323 3.0 10.0 0.00 0.00 0.00 75 1015.1
20260505201532 60 347 5.0 8.0 0.00 0.00 0.00 74 1015.1
20260505201031 60 314 0.0 6.0 0.00 0.00 0.00 76 1015.1
20260505200532 59 314 2.0 6.0 0.00 0.00 0.00 75 1015.1
20260505200034 59 314 0.0 5.0 0.00 0.00 0.00 76 1015.1
20260505195531 59 314 0.0 6.0 0.00 0.00 0.00 77 1015.2
20260505195029 59 314 1.0 6.0 0.00 0.00 0.00 76 1015.2
20260505194529 59 313 2.0 10.0 0.00 0.00 0.00 75 1015.3
20260505194029 59 312 2.0 10.0 0.00 0.00 0.00 76 1015.3
20260505193528 59 333 3.0 8.0 0.00 0.00 0.00 76 1015.3
20260505193028 59 336 0.0 6.0 0.00 0.00 0.00 77 1015.3
20260505192528 59 335 1.0 6.0 0.00 0.00 0.00 76 1015.3
20260505192028 59 336 2.0 6.0 0.00 0.00 0.00 77 1015.3
20260505191527 59 333 0.0 8.0 0.00 0.00 0.00 78 1015.3
20260505191027 58 336 2.0 8.0 0.00 0.00 0.00 77 1015.2
20260505190530 58 339 2.0 8.0 0.00 0.00 0.00 77 1015.2
20260505190026 58 348 1.0 6.0 0.00 0.00 0.00 77 1015.3
20260505185526 58 350 1.0 6.0 0.00 0.00 0.00 77 1015.2
20260505185026 58 338 0.0 6.0 0.00 0.00 0.00 77 1015.2
20260505184528 58 325 0.0 6.0 0.00 0.00 0.00 77 1015.2
20260505184026 58 325 2.0 5.0 0.00 0.00 0.00 77 1015.1
20260505183526 58 325 0.0 3.0 0.00 0.00 0.00 79 1015.2
20260505183040 57 325 0.0 5.0 0.00 0.00 0.00 78 1015.2
20260505182526 58 325 2.0 9.0 0.00 0.00 0.00 78 1015.2
20260505182025 59 327 2.0 9.0 0.00 0.00 0.00 78 1015.1
20260505181525 58 332 0.0 1.0 0.00 0.00 0.00 77 1015.1
20260505181023 57 332 0.0 1.0 0.00 0.00 0.00 79 1015.2
20260505180522 57 332 0.0 4.0 0.00 0.00 0.00 78 1015.2
20260505180023 57 332 1.0 5.0 0.00 0.00 0.00 78 1015.2
20260505175522 56 332 0.0 6.0 0.00 0.00 0.00 81 1015.3
20260505175023 57 332 4.0 5.0 0.00 0.00 0.00 79 1015.3
20260505174521 57 332 0.0 1.0 0.00 0.00 0.00 81 1015.3
20260505174021 57 332 0.0 1.0 0.00 0.00 0.00 79 1015.3
20260505173519 56 332 0.0 1.0 0.00 0.00 0.00 80 1015.2
20260505173022 56 332 0.0 4.0 0.00 0.00 0.00 82 1015.2
20260505172520 56 332 0.0 4.0 0.00 0.00 0.00 82 1015.2
20260505172018 55 332 1.0 4.0 0.00 0.00 0.00 82 1015.1
20260505171518 55 332 0.0 3.0 0.00 0.00 0.00 83 1015.1
20260505171018 55 332 1.0 3.0 0.00 0.00 0.00 82 1015.2
20260505170517 55 332 0.0 2.0 0.00 0.00 0.00 83 1015.1
20260505170019 55 332 0.0 2.0 0.00 0.00 0.00 84 1015.1
20260505165517 54 332 0.0 1.0 0.00 0.00 0.00 85 1015.1
20260505165017 54 332 0.0 2.0 0.00 0.00 0.00 84 1015.1
20260505164519 54 332 0.0 2.0 0.00 0.00 0.00 85 1015.1
20260505164017 54 332 0.0 1.0 0.00 0.00 0.00 85 1015.2
20260505163517 54 332 0.0 1.0 0.00 0.00 0.00 86 1015.1
20260505163017 54 332 0.0 1.0 0.00 0.00 0.00 86 1015.2
20260505162517 54 332 0.0 2.0 0.00 0.00 0.00 86 1015.1
20260505162017 53 332 0.0 4.0 0.00 0.00 0.00 86 1015.1
20260505161520 53 332 2.0 4.0 0.00 0.00 0.00 86 1015.2
20260505161016 53 332 0.0 3.0 0.00 0.00 0.00 86 1015.2
20260505160516 53 332 0.0 1.0 0.00 0.00 0.00 86 1015.2
20260505153017 53 332 0.0 0.0 0.00 0.00 0.00 87 1015.1
20260505152513 53 332 0.0 0.0 0.00 0.00 0.00 87 1015.1
20260505152014 53 332 0.0 1.0 0.00 0.00 0.00 87 1015.0
20260505151513 53 332 0.0 1.0 0.00 0.00 0.00 87 1015.0
20260505151014 53 332 0.0 1.0 0.00 0.00 0.00 87 1015.1
20260505150513 53 332 0.0 1.0 0.00 0.00 0.00 88 1015.0
20260505140510 52 332 0.0 0.0 0.00 0.00 0.00 89 1014.6
20260505125002 52 332 0.0 1.0 0.00 0.00 0.00 88 1014.1
20260505124502 52 332 0.0 1.0 0.00 0.00 0.00 88 1014.1
20260505124002 52 332 0.0 1.0 0.00 0.00 0.00 88 1013.9
20260505123600 52 332 0.0 1.0 0.00 0.00 0.00 88 1013.9
20260505123100 52 332 0.0 1.0 0.00 0.00 0.00 88 1013.9
20260505122602 52 332 0.0 1.0 0.00 0.00 0.00 88 1013.9
20260505122059 52 332 0.0 4.0 0.00 0.00 0.00 88 1013.9
20260505121600 52 332 0.0 4.0 0.00 0.00 0.00 88 1013.8
20260505121059 52 332 0.0 4.0 0.00 0.00 0.00 88 1013.9
20260505120559 52 332 0.0 4.0 0.00 0.00 0.00 87 1013.7
20260505120112 53 332 0.0 3.0 0.00 0.00 0.00 87 1013.7
20260505115559 53 332 0.0 0.0 0.00 0.00 0.00 87 1013.8
20260505115057 53 332 0.0 1.0 0.00 0.00 0.00 87 1013.7
20260505114557 53 332 0.0 2.0 0.00 0.00 0.00 87 1013.7
20260505114057 53 332 0.0 2.0 0.00 0.00 0.00 87 1013.8
20260505113556 53 332 0.0 2.0 0.00 0.00 0.00 87 1013.8
20260505113058 53 332 0.0 2.0 0.00 0.00 0.00 87 1013.8
20260505112556 53 332 0.0 1.0 0.00 0.00 0.00 87 1013.8
20260505112056 53 332 0.0 1.0 0.00 0.00 0.00 87 1013.8
20260505111556 53 332 0.0 0.0 0.00 0.00 0.00 87 1013.9
20260505111056 53 332 0.0 3.0 0.00 0.00 0.00 87 1013.9
20260505110554 53 332 0.0 3.0 0.00 0.00 0.00 86 1013.9
20260505110105 53 332 0.0 2.0 0.00 0.00 0.00 86 1013.7
20260505102050 53 332 0.0 1.0 0.00 0.00 0.00 85 1013.5
20260505101550 53 332 0.0 3.0 0.00 0.00 0.00 85 1013.5
20260505101048 53 332 1.0 3.0 0.00 0.00 0.00 85 1013.4
20260505100550 53 332 0.0 1.0 0.00 0.00 0.00 85 1013.4
20260505100048 53 332 0.0 0.0 0.00 0.00 0.00 85 1013.3
20260505095549 53 332 0.0 3.0 0.00 0.00 0.00 85 1013.3
20260505095046 53 332 0.0 3.0 0.00 0.00 0.00 85 1013.2
20260505094549 53 332 0.0 1.0 0.00 0.00 0.00 85 1013.3
20260505094046 54 332 0.0 1.0 0.00 0.00 0.00 85 1013.3
20260505093546 54 332 0.0 1.0 0.00 0.00 0.00 85 1013.2
20260505093045 54 332 0.0 0.0 0.00 0.00 0.00 84 1013.3
20260505092548 54 332 0.0 4.0 0.00 0.00 0.00 84 1013.2
20260505092044 54 332 0.0 4.0 0.00 0.00 0.00 84 1013.2
20260505091545 54 332 1.0 5.0 0.00 0.00 0.00 84 1013.2
20260505091042 54 332 0.0 5.0 0.00 0.00 0.00 84 1013.1
20260505090542 54 332 1.0 5.0 0.00 0.00 0.00 83 1013.1
20260505090044 54 332 0.0 3.0 0.00 0.00 0.00 83 1013.1
20260505085541 55 332 0.0 3.0 0.00 0.00 0.00 83 1013.1
20260505085043 55 332 0.0 6.0 0.00 0.00 0.00 83 1013.2
20260505084547 55 332 2.0 6.0 0.00 0.00 0.00 83 1013.1
20260505084040 55 332 0.0 5.0 0.00 0.00 0.00 83 1013.1
20260505083541 55 332 0.0 3.0 0.00 0.00 0.00 83 1013.1
20260505083040 55 332 0.0 3.0 0.00 0.00 0.00 82 1013.0
20260505082539 55 332 0.0 3.0 0.00 0.00 0.00 83 1013.1
20260505082039 55 332 0.0 3.0 0.00 0.00 0.00 82 1013.1
20260505081539 55 332 0.0 3.0 0.00 0.00 0.00 82 1013.1
20260505081037 55 332 1.0 3.0 0.00 0.00 0.00 82 1013.1
20260505080539 55 332 1.0 3.0 0.00 0.00 0.00 82 1013.1
20260505080040 55 332 0.0 4.0 0.00 0.00 0.00 82 1013.1
20260505075537 55 332 0.0 4.0 0.00 0.00 0.00 82 1013.1
20260505075037 55 332 0.0 0.0 0.00 0.00 0.00 82 1013.0
20260505074538 55 332 0.0 1.0 0.00 0.00 0.00 82 1013.1
20260505074036 55 332 0.0 3.0 0.00 0.00 0.00 82 1012.9
20260505073538 55 332 0.0 3.0 0.00 0.00 0.00 82 1012.9
20260505073042 55 332 0.0 1.0 0.00 0.00 0.00 82 1012.8
20260505072535 56 332 0.0 1.0 0.00 0.00 0.00 82 1012.8
20260505072034 56 332 0.0 0.0 0.00 0.00 0.00 81 1012.9
20260505071534 56 332 0.0 2.0 0.00 0.00 0.00 81 1012.7
20260505071136 56 332 0.0 2.0 0.00 0.00 0.00 82 1012.8
20260505070532 56 332 0.0 0.0 0.00 0.00 0.00 81 1012.8
20260505070039 56 332 0.0 0.0 0.00 0.00 0.00 82 1012.7
20260505065530 56 332 0.0 0.0 0.00 0.00 0.00 81 1012.7
20260505065029 56 332 0.0 0.0 0.00 0.00 0.00 81 1012.6
20260505064532 56 332 0.0 2.0 0.00 0.00 0.00 81 1012.6
20260505064029 56 332 0.0 2.0 0.00 0.00 0.00 81 1012.7
20260505063532 56 332 0.0 0.0 0.00 0.00 0.00 80 1012.6
20260505063029 57 332 0.0 3.0 0.00 0.00 0.00 80 1012.6
20260505062529 57 332 0.0 3.0 0.00 0.00 0.00 80 1012.6
20260505062028 57 332 0.0 4.0 0.00 0.00 0.00 81 1012.6
20260505061537 57 332 0.0 4.0 0.00 0.00 0.00 81 1012.6
20260505061028 57 332 0.0 4.0 0.00 0.00 0.00 80 1012.5
20260505060528 57 332 0.0 4.0 0.00 0.00 0.00 80 1012.6
20260505060028 57 332 0.0 2.0 0.00 0.00 0.00 79 1012.6
20260505055528 57 332 0.0 2.0 0.00 0.00 0.00 80 1012.6
20260505055028 57 332 0.0 1.0 0.00 0.00 0.00 79 1012.6
20260505054535 57 332 0.0 1.0 0.00 0.00 0.00 79 1012.6
20260505054028 57 332 0.0 1.0 0.00 0.00 0.00 79 1012.6
20260505053531 58 332 0.0 6.0 0.00 0.00 0.00 79 1012.5
20260505053031 58 332 1.0 6.0 0.00 0.00 0.00 79 1012.6
20260505052527 58 333 2.0 6.0 0.00 0.00 0.00 79 1012.6
20260505052027 58 334 0.0 3.0 0.00 0.00 0.00 79 1012.6
20260505051528 58 334 0.0 3.0 0.00 0.00 0.00 79 1012.5
20260505051028 58 334 0.0 2.0 0.00 0.00 0.00 79 1012.4
20260505050526 58 334 0.0 1.0 0.00 0.00 0.00 78 1012.4
20260505041537 59 334 0.0 0.0 0.00 0.00 0.00 78 1011.6
20260505041025 59 334 0.0 0.0 0.00 0.00 0.00 78 1011.6
20260505040526 59 334 0.0 0.0 0.00 0.00 0.00 78 1011.5
20260505040036 60 334 0.0 0.0 0.00 0.00 0.00 78 1011.5
20260505035525 60 334 0.0 4.0 0.00 0.00 0.00 78 1011.4
20260505035024 60 334 0.0 4.0 0.00 0.00 0.00 78 1011.3
20260505034525 60 334 0.0 1.0 0.00 0.00 0.00 79 1011.1
20260505034024 60 334 0.0 1.0 0.00 0.00 0.00 79 1011.0
20260505033526 61 334 0.0 0.0 0.00 0.00 0.00 77 1010.9
20260505033024 61 334 0.0 0.0 0.00 0.00 0.00 77 1010.8
20260505032524 61 334 0.0 0.0 0.00 0.00 0.00 76 1010.7
20260505032023 62 334 0.0 1.0 0.00 0.00 0.00 76 1010.5
20260505031536 62 334 0.0 3.0 0.00 0.00 0.00 75 1010.5
20260505031023 63 334 0.0 5.0 0.00 0.00 0.00 75 1010.4
20260505030523 63 334 2.0 5.0 0.00 0.00 0.00 73 1010.3
20260505030023 64 333 0.0 4.0 0.00 0.00 0.00 74 1010.2
20260505025524 64 333 0.0 4.0 0.00 0.00 0.00 73 1010.1
20260505025023 64 333 1.0 6.0 0.00 0.00 0.00 72 1010.0
20260505024523 65 334 1.0 8.0 0.00 0.00 0.00 71 1010.1
20260505024022 65 327 0.0 4.0 0.00 0.00 0.00 71 1010.0
20260505023524 65 327 1.0 4.0 0.00 0.00 0.00 71 1009.8
20260505023022 66 327 0.0 4.0 0.00 0.00 0.00 70 1009.8
20260505022522 66 327 0.0 6.0 0.00 0.00 0.00 70 1009.8
20260505022022 67 327 2.0 6.0 0.00 0.00 0.00 69 1009.8
20260505021522 67 331 1.0 8.0 0.00 0.00 0.00 70 1009.9
20260505021021 67 339 2.0 8.0 0.00 0.00 0.00 69 1009.9
20260505020521 67 346 2.0 6.0 0.00 0.00 0.00 68 1009.9
20260505020021 67 351 3.0 9.0 0.00 0.00 0.00 68 1009.8
20260505015521 67 315 3.0 9.0 0.00 0.00 0.00 68 1009.8
20260505015021 67 300 0.0 10.0 0.00 0.00 0.00 68 1009.7
20260505014528 68 300 1.0 10.0 0.00 0.00 0.00 68 1009.7
20260505014021 68 322 0.0 8.0 0.00 0.00 0.00 66 1009.8
20260505013522 68 322 3.0 8.0 0.00 0.00 0.00 66 1009.8
20260505013020 68 317 0.0 5.0 0.00 0.00 0.00 67 1009.8
20260505012520 68 317 0.0 8.0 0.00 0.00 0.00 66 1009.9
20260505012020 69 317 2.0 8.0 0.00 0.00 0.00 66 1010.0
20260505011520 68 334 1.0 5.0 0.00 0.00 0.00 66 1010.0
20260505011020 68 343 0.0 6.0 0.00 0.00 0.00 66 1009.9
20260505010519 68 343 3.0 6.0 0.00 0.00 0.00 64 1010.0
20260505010024 68 313 2.0 6.0 0.00 0.00 0.00 65 1010.0
20260505005519 68 315 0.0 8.0 0.00 0.00 0.00 67 1010.0
20260505005019 68 333 3.0 9.0 0.00 0.00 0.00 65 1010.0
20260505004522 68 330 3.0 9.0 0.00 0.00 0.00 65 1010.0
20260505004018 68 321 3.0 8.0 0.00 0.00 0.00 64 1010.1
20260505003518 68 321 0.0 5.0 0.00 0.00 0.00 67 1010.1
20260505003021 68 321 0.0 5.0 0.00 0.00 0.00 63 1010.1
20260505002518 68 322 0.0 8.0 0.00 0.00 0.00 65 1010.1
20260505002018 68 323 3.0 9.0 0.00 0.00 0.00 64 1010.1
20260505001518 69 327 4.0 9.0 0.00 0.00 0.00 63 1010.1
20260505001017 69 318 0.0 4.0 0.00 0.00 0.00 66 1010.1
20260505000521 68 318 0.0 6.0 0.00 0.00 0.00 63 1010.2
20260505000017 69 319 1.0 11.0 0.00 0.00 0.00 64 1010.2
20260504235517 69 311 3.0 11.0 0.00 0.00 0.00 62 1010.2
20260504235020 69 321 3.0 8.0 0.00 0.00 0.00 63 1010.2
20260504234517 69 322 4.0 8.0 0.00 0.00 0.00 62 1010.3
20260504234016 69 340 3.0 9.0 0.00 0.00 0.00 62 1010.3
20260504233516 69 309 3.0 9.0 0.00 0.00 0.00 62 1010.3
20260504233016 69 5 1.0 6.0 0.00 0.00 0.00 62 1010.4
20260504232516 69 320 1.0 9.0 0.00 0.00 0.00 61 1010.4
20260504232016 69 347 4.0 9.0 0.00 0.00 0.00 63 1010.4
20260504231515 69 298 4.0 10.0 0.00 0.00 0.00 62 1010.5
20260504231015 69 319 4.0 10.0 0.00 0.00 0.00 61 1010.6
20260504230515 69 355 1.0 9.0 0.00 0.00 0.00 63 1010.6
20260504230014 69 348 0.0 6.0 0.00 0.00 0.00 65 1010.7
20260504225514 69 346 2.0 8.0 0.00 0.00 0.00 62 1010.7
20260504225012 68 350 3.0 9.0 0.00 0.00 0.00 64 1010.7
20260504224518 68 319 2.0 11.0 0.00 0.00 0.00 64 1010.8
20260504224012 68 338 5.0 11.0 0.00 0.00 0.00 63 1010.9
20260504223511 67 331 0.0 8.0 0.00 0.00 0.00 66 1010.9
20260504223024 67 326 1.0 8.0 0.00 0.00 0.00 63 1011.0
20260504222511 67 325 1.0 8.0 0.00 0.00 0.00 67 1011.1
20260504222015 67 341 4.0 8.0 0.00 0.00 0.00 65 1011.1
20260504221510 67 321 3.0 6.0 0.00 0.00 0.00 64 1011.3
20260504221010 66 323 1.0 6.0 0.00 0.00 0.00 69 1011.4
20260504220508 67 327 2.0 8.0 0.00 0.00 0.00 65 1011.6
20260504220014 66 309 1.0 10.0 0.00 0.00 0.00 65 1011.5
20260504215507 66 343 4.0 10.0 0.00 0.00 0.00 66 1011.7
20260504215006 66 17 5.0 10.0 0.00 0.00 0.00 66 1011.6
20260504214506 65 334 3.0 9.0 0.00 0.00 0.00 67 1011.7